Regional Weather Roundup
Issued by NWS

Home | Current Version | Previous Version | Graphics & Text | Print | Product List | Glossary On
Versions: 1 2 3 4 5 6 7 8 9 10 11 12 13 14 15 16 17 18 19 20 21 22 23 24 25 26 27 28 29 30 31 32 33 34 35 36 37 38 39 40 41 42 43 44 45 46 47 48 49 50
000
ASUS45 KBOI 210310
RWRID
WEATHER ROUNDUP FOR IDAHO
NATIONAL WEATHER SERVICE BOISE ID
900 PM MDT SAT SEP 20 2014

NOTE: "FAIR" INDICATES FEW OR NO CLOUDS BELOW 12000 FEET
WITH NO SIGNIFICANT WEATHER AND/OR OBSTRUCTIONS TO VISIBILITY

IDZ012-014-210400-
SOUTHWEST IDAHO


CITY           SKY/WX    TMP DP  RH WIND       PRES   REMARKS
BOISE          CLEAR     74  48  39 CALM      30.01R
CALDWELL       CLEAR     72  46  40 CALM      30.01S
MOUNTAIN HOME  CLEAR     72  42  34 NW6       30.02R
$$

IDZ016-017-210400-
SOUTHCENTRAL IDAHO


CITY           SKY/WX    TMP DP  RH WIND       PRES   REMARKS
BURLEY         PTCLDY    61  51  70 S3        30.08R
JEROME         CLEAR     64  48  56 E3        30.09R
TWIN FALLS     PTCLDY    60  43  53 SE8       30.09R
$$

IDZ019>023-210400-
SOUTHEAST IDAHO


CITY           SKY/WX    TMP DP  RH WIND       PRES   REMARKS
IDAHO FALLS    CLEAR     61  46  57 CALM      30.16R
POCATELLO      CLEAR     67  46  47 E6        30.13R
REXBURG        CLEAR     63  46  54 CALM      30.17R
$$

IDZ006-010-011-018-031-032-210400-
CENTRAL IDAHO MOUNTAINS


CITY           SKY/WX    TMP DP  RH WIND       PRES   REMARKS
MCCALL         CLEAR     64  40  41 N3        30.14R
HAILEY         CLEAR     61  43  51 NW8       30.20R
STANLEY          N/A     58  36  43 CALM      30.24R
SALMON         CLEAR     64  41  42 S3        30.10R
CHALLIS        CLEAR     70  36  28 NW7       30.14R
$$

IDZ002-004-006-007-026-210400-
NORTHERN IDAHO


CITY           SKY/WX    TMP DP  RH WIND       PRES   REMARKS
LEWISTON       CLEAR     77  40  26 S9        29.96S
LOWELL           N/A     63  55  75 CALM      30.01R
COEUR D`ALENE  CLEAR     68  46  45 N9        30.06S
MULLAN PASS    CLEAR     60  36  40 SE7       30.27S
$$



USA.gov is the U.S. government's official web portal to all federal, state and local government web resources and services.